When you browse on this site, cookies collect data to enhance your experience and personalize the content and advertising you see.
Visit our Privacy Policy to learn more. By continuing to use the site, you agree to this use of cookies and data.
  • In United Kingdom
  • List of Countries
  • For 7 days
  • Water Temperature
  • Weather Map
  • Weather Widgets
  • user-avatar
    Login

    Hourly Weather Bubanza

    Today, 19 February, Wednesday

    Time Temperature Precipitation Wind Pressure Humidity
    00:00 +22°C° 0 mm 1 mps 673 mmHg 86%
    01:00 +22°C° 0 mm 1 mps 673 mmHg 85%
    02:00 +21°C° 0 mm 1 mps 673 mmHg 84%
    03:00 +21°C° 0 mm 1 mps 673 mmHg 85%
    04:00 +21°C° 0 mm 1 mps 672 mmHg 86%
    05:00 +21°C° 0 mm 1 mps 672 mmHg 87%
    06:00 +22°C° 0 mm 1 mps 673 mmHg 84%
    07:00 +22°C° 0 mm 0 mps 674 mmHg 81%
    08:00 +23°C° 0 mm 0 mps 675 mmHg 78%
    09:00 +25°C° 0.6 mm 0 mps 675 mmHg 75%
    10:00 +26°C° 0.6 mm 0 mps 675 mmHg 71%
    11:00 +30°C° 0.6 mm 1 mps 675 mmHg 67%
    12:00 +30°C° 0.7 mm 1 mps 674 mmHg 67%
    13:00 +30°C° 0.7 mm 1 mps 674 mmHg 67%
    14:00 +30°C° 0.7 mm 2 mps 673 mmHg 67%
    15:00 +29°C° 0.9 mm 2 mps 672 mmHg 71%
    16:00 +28°C° 0.9 mm 2 mps 672 mmHg 74%
    17:00 +28°C° 0.9 mm 1 mps 671 mmHg 77%
    18:00 +26°C° 0.2 mm 1 mps 671 mmHg 81%
    19:00 +25°C° 0.2 mm 1 mps 672 mmHg 84%
    20:00 +23°C° 0.2 mm 1 mps 672 mmHg 88%
    21:00 +23°C° 0 mm 1 mps 672 mmHg 88%
    22:00 +22°C° 0 mm 1 mps 672 mmHg 87%
    23:00 +22°C° 0 mm 1 mps 673 mmHg 87%

    Tomorrow, 20 February, Thursday

    Time Temperature Precipitation Wind Pressure Humidity
    00:00 +22°C° 0 mm 1 mps 673 mmHg 87%
    01:00 +22°C° 0 mm 1 mps 672 mmHg 88%
    02:00 +21°C° 0 mm 1 mps 672 mmHg 88%
    03:00 +21°C° 0 mm 1 mps 672 mmHg 89%
    04:00 +21°C° 0 mm 1 mps 672 mmHg 89%
    05:00 +19°C° 0 mm 0 mps 672 mmHg 90%
    06:00 +20°C° 0 mm 0 mps 673 mmHg 86%
    07:00 +22°C° 0 mm 0 mps 673 mmHg 83%
    08:00 +23°C° 0 mm 0 mps 674 mmHg 80%
    09:00 +25°C° 0.2 mm 0 mps 674 mmHg 73%
    10:00 +29°C° 0.2 mm 1 mps 674 mmHg 66%
    11:00 +30°C° 0.2 mm 1 mps 674 mmHg 59%
    12:00 +30°C° 0.6 mm 1 mps 673 mmHg 60%
    13:00 +30°C° 0.6 mm 2 mps 673 mmHg 61%
    14:00 +30°C° 0.6 mm 2 mps 672 mmHg 62%
    15:00 +30°C° 0.7 mm 2 mps 671 mmHg 67%
    16:00 +29°C° 0.7 mm 2 mps 671 mmHg 72%
    17:00 +28°C° 0.7 mm 1 mps 670 mmHg 77%
    18:00 +26°C° 0.4 mm 1 mps 671 mmHg 81%
    19:00 +25°C° 0.4 mm 1 mps 671 mmHg 84%
    20:00 +23°C° 0.4 mm 1 mps 671 mmHg 88%
    21:00 +23°C° 0 mm 1 mps 672 mmHg 87%
    22:00 +23°C° 0 mm 1 mps 672 mmHg 87%
    23:00 +22°C° 0 mm 1 mps 672 mmHg 86%

    Day after tomorrow, 21 February, Friday

    Time Temperature Precipitation Wind Pressure Humidity
    00:00 +22°C° 0 mm 1 mps 672 mmHg 87%
    01:00 +22°C° 0 mm 1 mps 672 mmHg 88%
    02:00 +20°C° 0 mm 0 mps 671 mmHg 88%
    03:00 +19°C° 0 mm 0 mps 671 mmHg 89%
    04:00 +19°C° 0 mm 0 mps 671 mmHg 90%
    05:00 +19°C° 0 mm 0 mps 671 mmHg 91%
    06:00 +21°C° 0 mm 0 mps 672 mmHg 88%
    07:00 +22°C° 0 mm 0 mps 673 mmHg 85%
    08:00 +23°C° 0 mm 0 mps 674 mmHg 82%
    15:00 +30°C° 0.6 mm 2 mps 672 mmHg 67%
    16:00 +29°C° 0.6 mm 2 mps 671 mmHg 72%
    17:00 +28°C° 0.6 mm 1 mps 671 mmHg 77%
    18:00 +27°C° 0.4 mm 1 mps 671 mmHg 80%
    19:00 +25°C° 0.4 mm 1 mps 671 mmHg 84%
    20:00 +23°C° 0.4 mm 1 mps 671 mmHg 88%
    21:00 +23°C° 0.1 mm 1 mps 672 mmHg 87%
    22:00 +23°C° 0.1 mm 1 mps 672 mmHg 87%
    23:00 +22°C° 0.1 mm 1 mps 673 mmHg 86%

    22 February, Saturday

    Time Temperature Precipitation Wind Pressure Humidity
    00:00 +22°C° 0 mm 1 mps 672 mmHg 87%
    01:00 +22°C° 0 mm 1 mps 672 mmHg 87%
    02:00 +22°C° 0 mm 1 mps 672 mmHg 88%
    03:00 +22°C° 0 mm 1 mps 672 mmHg 88%
    04:00 +21°C° 0 mm 1 mps 672 mmHg 89%
    05:00 +21°C° 0 mm 1 mps 672 mmHg 90%
    06:00 +21°C° 0 mm 0 mps 673 mmHg 86%
    07:00 +22°C° 0 mm 0 mps 673 mmHg 82%
    08:00 +24°C° 0 mm 0 mps 674 mmHg 79%
    09:00 +26°C° 0.3 mm 0 mps 674 mmHg 71%
    10:00 +28°C° 0.3 mm 0 mps 674 mmHg 64%
    11:00 +29°C° 0.3 mm 0 mps 674 mmHg 57%
    12:00 +31°C° 0.8 mm 1 mps 674 mmHg 59%
    13:00 +31°C° 0.8 mm 1 mps 673 mmHg 62%
    14:00 +31°C° 0.8 mm 1 mps 672 mmHg 64%
    15:00 +30°C° 0.8 mm 1 mps 672 mmHg 68%
    16:00 +29°C° 0.8 mm 1 mps 672 mmHg 72%
    17:00 +28°C° 0.8 mm 1 mps 671 mmHg 76%
    18:00 +27°C° 0.3 mm 1 mps 671 mmHg 79%
    19:00 +25°C° 0.3 mm 1 mps 672 mmHg 83%
    20:00 +23°C° 0.3 mm 1 mps 672 mmHg 87%
    21:00 +23°C° 0.2 mm 1 mps 672 mmHg 87%
    22:00 +23°C° 0.2 mm 1 mps 672 mmHg 86%
    23:00 +23°C° 0.2 mm 1 mps 673 mmHg 86%

    23 February, Sunday

    Time Temperature Precipitation Wind Pressure Humidity
    00:00 +22°C° 0 mm 1 mps 672 mmHg 87%
    01:00 +22°C° 0 mm 1 mps 672 mmHg 87%
    02:00 +22°C° 0 mm 1 mps 671 mmHg 87%
    03:00 +22°C° 0 mm 1 mps 671 mmHg 87%
    04:00 +22°C° 0 mm 1 mps 672 mmHg 87%
    05:00 +21°C° 0 mm 1 mps 672 mmHg 88%
    06:00 +23°C° 0 mm 1 mps 672 mmHg 85%
    07:00 +24°C° 0 mm 1 mps 673 mmHg 83%
    08:00 +24°C° 0 mm 0 mps 674 mmHg 80%
    09:00 +27°C° 0.3 mm 1 mps 674 mmHg 73%
    10:00 +29°C° 0.3 mm 1 mps 674 mmHg 65%
    11:00 +31°C° 0.3 mm 1 mps 674 mmHg 58%
    12:00 +31°C° 0.4 mm 1 mps 673 mmHg 58%
    13:00 +31°C° 0.4 mm 1 mps 672 mmHg 58%
    14:00 +32°C° 0.4 mm 1 mps 672 mmHg 58%
    15:00 +31°C° 0.4 mm 2 mps 671 mmHg 64%
    16:00 +30°C° 0.4 mm 2 mps 671 mmHg 70%
    17:00 +29°C° 0.4 mm 2 mps 671 mmHg 75%
    18:00 +27°C° 0.4 mm 1 mps 671 mmHg 79%
    19:00 +25°C° 0.4 mm 1 mps 671 mmHg 82%
    20:00 +24°C° 0.4 mm 1 mps 672 mmHg 86%
    21:00 +24°C° 0.1 mm 1 mps 672 mmHg 87%
    22:00 +23°C° 0.1 mm 1 mps 672 mmHg 88%
    23:00 +23°C° 0.1 mm 1 mps 672 mmHg 89%

    24 February, Monday

    Time Temperature Precipitation Wind Pressure Humidity
    00:00 +21°C° 0 mm 0 mps 672 mmHg 89%
    01:00 +21°C° 0 mm 0 mps 672 mmHg 90%
    02:00 +21°C° 0 mm 0 mps 671 mmHg 90%
    03:00 +20°C° 0.3 mm 0 mps 671 mmHg 90%
    04:00 +20°C° 0.3 mm 0 mps 671 mmHg 91%
    05:00 +20°C° 0.3 mm 0 mps 672 mmHg 91%
    06:00 +21°C° 0.1 mm 0 mps 672 mmHg 90%
    07:00 +22°C° 0.1 mm 0 mps 673 mmHg 88%
    08:00 +23°C° 0.1 mm 0 mps 673 mmHg 86%
    09:00 +25°C° 0.5 mm 0 mps 673 mmHg 80%
    10:00 +28°C° 0.5 mm 1 mps 673 mmHg 73%
    11:00 +30°C° 0.5 mm 1 mps 673 mmHg 67%
    12:00 +30°C° 1 mm 1 mps 673 mmHg 66%
    13:00 +30°C° 1 mm 1 mps 672 mmHg 66%
    14:00 +30°C° 1 mm 1 mps 672 mmHg 66%
    15:00 +29°C° 1.1 mm 1 mps 671 mmHg 71%
    16:00 +28°C° 1.1 mm 1 mps 671 mmHg 77%
    17:00 +27°C° 1.1 mm 2 mps 671 mmHg 82%
    18:00 +26°C° 0.5 mm 1 mps 671 mmHg 84%
    19:00 +25°C° 0.5 mm 1 mps 671 mmHg 86%
    20:00 +24°C° 0.5 mm 1 mps 672 mmHg 88%
    21:00 +24°C° 0.6 mm 1 mps 672 mmHg 89%
    22:00 +23°C° 0.6 mm 1 mps 673 mmHg 90%
    23:00 +23°C° 0.6 mm 1 mps 673 mmHg 91%
    Show more